Flag for Germany Weather past 2 weeks in Rostock, Mecklenburg-Western Pomerania, Germany

Now
46 °F

Rain. Overcast.


Feels Like: 43 °F
Forecast: 40 / 44 °F
Wind: 7 mph from West

Location: Rostock-Warnemuende

Current Time: Dec 19, 2014 at 12:00:05 PM

Latest Report: Dec 19, 2014 at 11:00 AM


Visibility: 6 mi

Pressure: 29.53 "Hg

Humidity: 99%

Dew point: 46 °F

Location of RostockLocation

Historic Weather in Rostock — Graph

°F

Rostock temperature yesterday

Maximum temperature yesterday: 53 °F (at 9:00 PM)
Minimum temperature yesterday: 39 °F (at 12:00 AM)
Average temperature yesterday: 48 °F

Past Weeks' High & Low Weather Summary

 TemperatureHumidityPressure
High53 °F (Dec 19, 2:00 AM)100% (Dec 7, 12:00 AM)30.29 "Hg (Dec 7, 12:00 AM)
Low30 °F (Dec 7, 4:00 AM)70% (Dec 13, 2:00 AM)29.15 "Hg (Dec 12, 3:00 PM)
Average39 °F87%29.82 "Hg
* Reported Dec 4 11:00 AM — Dec 19 11:00 AM, Rostock, Weather by CustomWeather, © 2014

Note: Actual official high and low records may vary slightly from our data, if they occured in-between our weather recording intervals... More about our weather records

Advertising

Rostock weather history for previous 24 hours

 ConditionsComfort  
Time TempWeatherWind HumidityBarometerVisibility
11:00 AM
Dec 19
46 °FRain. Overcast.7 mph99%29.53 "Hg6 mi
10:00 AM47 °FHeavy rain. Overcast.10 mph96%29.53 "Hg1 mi
9:00 AM53 °FRain. Overcast.8 mph93%29.50 "Hg5 mi
8:00 AM53 °FLight rain. Overcast.7 mph92%29.53 "Hg6 mi
7:00 AM52 °FDrizzle. Low clouds.6 mph95%29.54 "Hg4 mi
6:00 AM52 °FDrizzle. Low clouds.6 mph95%29.56 "Hg6 mi
5:00 AM52 °FLow clouds.7 mph92%29.57 "Hg22 mi
4:00 AM52 °FLow clouds.7 mph95%29.57 "Hg7 mi
3:00 AM52 °FDrizzle. Low clouds.7 mph95%29.56 "Hg2 mi
2:00 AM53 °FDrizzle. Overcast.7 mph90%29.55 "Hg16 mi
1:00 AM53 °FDrizzle. Overcast.7 mph92%29.55 "Hg14 mi
12:00 AM53 °FDrizzle. Overcast.8 mph93%29.54 "Hg9 mi
11:00 PM
Dec 18
53 °FDrizzle. Low clouds.8 mph92%29.54 "Hg11 mi
10:00 PM53 °FLow clouds.7 mph92%29.53 "Hg7 mi
9:00 PM53 °FDrizzle. Overcast.7 mph91%29.53 "Hg11 mi
8:00 PM52 °FRain. Overcast.7 mph94%29.53 "Hg7 mi
7:00 PM51 °FDrizzle. Low clouds.8 mph94%29.54 "Hg7 mi
6:00 PM51 °FOvercast.8 mph91%29.56 "Hg10 mi
5:00 PM52 °FOvercast.6 mph89%29.57 "Hg10 mi
4:00 PM52 °FOvercast.6 mph88%29.59 "Hg7 mi
3:00 PM52 °FOvercast.7 mph90%29.60 "Hg10 mi
2:00 PM52 °FOvercast.6 mph89%29.62 "Hg11 mi
1:00 PM51 °FLow clouds.6 mph92%29.65 "Hg7 mi
12:00 PM49 °FRain. Low clouds.6 mph96%29.65 "Hg3 mi
Weather by CustomWeather, © 2014

See weather overviewHow to use our weather pages